Regional Weather Roundup
Issued by NWS

Home | Current Version | Previous Version | Graphics & Text | Print | Product List | Glossary On
Versions: 1 2 3 4 5 6 7 8 9 10 11 12 13 14 15 16 17 18 19 20 21 22 23 24 25 26 27 28 29 30 31 32 33 34 35 36 37 38 39 40 41 42 43 44 45 46 47 48 49 50
000
ASUS43 KLMK 302210
RWRKY
KENTUCKY REGIONAL WEATHER ROUNDUP
NATIONAL WEATHER SERVICE LOUISVILLE KY
600 PM EDT THU JUL 30 2015

NOTE "FAIR" INDICATES FEW OR NO CLOUDS BELOW 12,000 FEET
WITH NO SIGNIFICANT WEATHER AND/OR OBSTRUCTIONS TO VISIBILITY.

KYZ001>023-026-027-061>063-070>075-302300-
WESTERN AND SOUTH CENTRAL KENTUCKY

CITY           SKY/WX    TMP DP  RH WIND       PRES   REMARKS
PADUCAH        SUNNY     87  61  41 NE10      30.08F
HENDERSON      SUNNY     84  63  48 N7        30.07F
OWENSBORO      SUNNY     87  58  37 N8        30.07F
HOPKINSVILLE   SUNNY     84  64  49 N10       30.07F
BOWLING GREEN  SUNNY     86  57  37 N8        30.07F
GLASGOW        SUNNY    N/A N/A N/A N9        30.06F
$$

KYZ024-025-028>034-038-045-046-053-302300-
NORTH CENTRAL KENTUCKY

CITY           SKY/WX    TMP DP  RH WIND       PRES   REMARKS
LOUISVILLE/SDF MOSUNNY   86  55  34 NW15      30.05F
LOUISVILLE/LOU SUNNY     87  57  35 NW14G20   30.05F
FORT KNOX      SUNNY     84  60  45 NW9       30.06S
$$

KYZ035>037-039>044-047>052-055>060-089>105-302300-
NORTHEAST KENTUCKY

CITY           SKY/WX    TMP DP  RH WIND       PRES   REMARKS
LEXINGTON      SUNNY     83  59  44 NW10      30.06F
COVINGTON      MOSUNNY   83  58  42 NW17      30.05F
FRANKFORT      SUNNY     84  58  40 NW8       30.05F
$$

KYZ054-064>069-076>088-106>120-302300-
SOUTHEAST KENTUCKY

CITY           SKY/WX    TMP DP  RH WIND       PRES   REMARKS
JACKSON        MOSUNNY   83  61  47 NW8       30.05S
LONDON         SUNNY     85  59  41 NW8       30.05F
SOMERSET       SUNNY     82  61  47 N8        30.06S
MIDDLESBORO    MOSUNNY   85  67  53 N6        30.02F
MONTICELLO     CLEAR     85  66  52 NW9       30.08F
$$




USA.gov is the U.S. government's official web portal to all federal, state and local government web resources and services.